Location: Luxembourg
(49.6117°N, 6.1300°E)
Time: 03:58:39
(UTC+02:00)

Envisat - Pass Details

Date: 25 January 2019
Orbit: 764 x 766 km, 98.2° (Epoch: 22 April)

Event Time Altitude Azimuth Distance (km) Brightness Sun altitude
Rises 19:16:25 0° 168° (SSE) 3,217 6.2 -18.8°
Reaches altitude 10° 19:18:43 10° 170° (S) 2,296 5.4 -19.2°
Maximum altitude 19:23:47 76° 257° (WSW) 793 3.1 -20.0°
Drops below altitude 10° 19:28:53 10° 343° (NNW) 2,314 5.6 -20.9°
Sets 19:31:13 0° 345° (NNW) 3,245 6.4 -21.2°
